Time,TemperatureF,DewpointF,PressureIn,WindDirection,WindDirectionDegrees,WindSpeedMPH,WindSpeedGustMPH,Humidity,HourlyPrecipIn,Conditions,Clouds,dailyrainin,SoftwareType,DateUTC
2013-05-09 00:14:00,67.7,60.0,29.81,WSW,245,8.0,13.0,75,0.00,,,0.00,weatherlink.com 1.10,2013-05-09 04:14:00,
2013-05-09 00:31:00,67.6,59.0,29.81,SW,233,7.0,15.0,74,0.00,,,0.00,weatherlink.com 1.10,2013-05-09 04:31:00,
2013-05-09 00:44:00,67.4,59.0,29.81,SW,229,13.0,15.0,75,0.00,,,0.00,weatherlink.com 1.10,2013-05-09 04:44:00,
2013-05-09 01:02:00,67.2,59.0,29.80,SW,236,4.0,10.0,75,0.00,,,0.00,weatherlink.com 1.10,2013-05-09 05:02:00,
2013-05-09 01:15:00,67.1,59.0,29.80,WSW,249,4.0,10.0,76,0.00,,,0.00,weatherlink.com 1.10,2013-05-09 05:15:00,
2013-05-09 01:31:00,66.8,59.0,29.80,SW,216,2.0,8.0,77,0.00,,,0.00,weatherlink.com 1.10,2013-05-09 05:31:00,
2013-05-09 01:45:00,66.6,60.0,29.79,WSW,248,4.0,6.0,78,0.00,,,0.00,weatherlink.com 1.10,2013-05-09 05:45:00,
2013-05-09 02:02:00,66.4,60.0,29.79,SSW,205,2.0,5.0,79,0.00,,,0.00,weatherlink.com 1.10,2013-05-09 06:02:00,
2013-05-09 02:18:00,66.4,60.0,29.79,SW,225,3.0,5.0,79,0.00,,,0.00,weatherlink.com 1.10,2013-05-09 06:18:00,
2013-05-09 02:31:00,66.2,60.0,29.79,NW,316,3.0,5.0,79,0.00,,,0.00,weatherlink.com 1.10,2013-05-09 06:31:00,
2013-05-09 02:46:00,65.7,59.0,29.79,NW,325,2.0,4.0,80,0.00,,,0.00,weatherlink.com 1.10,2013-05-09 06:46:00,
2013-05-09 03:02:00,65.3,59.0,29.79,NW,322,0.0,2.0,81,0.00,,,0.00,weatherlink.com 1.10,2013-05-09 07:02:00,
2013-05-09 03:16:00,64.9,59.0,29.79,NW,318,2.0,3.0,82,0.00,,,0.00,weatherlink.com 1.10,2013-05-09 07:16:00,
2013-05-09 03:31:00,64.6,59.0,29.79,West,270,0.0,2.0,83,0.00,,,0.00,weatherlink.com 1.10,2013-05-09 07:31:00,
2013-05-09 03:46:00,63.8,59.0,29.80,NW,314,0.0,3.0,84,0.00,,,0.00,weatherlink.com 1.10,2013-05-09 07:46:00,
2013-05-09 04:02:00,63.2,59.0,29.79,SSW,212,1.0,1.0,85,0.00,,,0.00,weatherlink.com 1.10,2013-05-09 08:02:00,
2013-05-09 04:17:00,62.6,59.0,29.79,SSW,197,1.0,1.0,87,0.00,,,0.00,weatherlink.com 1.10,2013-05-09 08:17:00,
2013-05-09 04:32:00,62.3,59.0,29.79,SSW,205,0.0,1.0,88,0.00,,,0.00,weatherlink.com 1.10,2013-05-09 08:32:00,
2013-05-09 04:47:00,62.0,59.0,29.79,SSW,203,0.0,0.0,88,0.00,,,0.00,weatherlink.com 1.10,2013-05-09 08:47:00,
2013-05-09 05:03:00,61.6,58.0,29.79,SSW,201,1.0,1.0,89,0.00,,,0.00,weatherlink.com 1.10,2013-05-09 09:03:00,
2013-05-09 05:17:00,61.5,59.0,29.79,SSW,201,1.0,1.0,90,0.00,,,0.00,weatherlink.com 1.10,2013-05-09 09:17:00,
2013-05-09 05:32:00,61.4,59.0,29.80,SW,219,0.0,1.0,91,0.00,,,0.00,weatherlink.com 1.10,2013-05-09 09:32:00,
2013-05-09 05:48:00,61.2,59.0,29.80,SW,217,0.0,1.0,91,0.00,,,0.00,weatherlink.com 1.10,2013-05-09 09:48:00,
2013-05-09 06:03:00,60.9,58.0,29.80,SW,219,0.0,1.0,91,0.00,,,0.00,weatherlink.com 1.10,2013-05-09 10:03:00,
2013-05-09 06:18:00,60.4,58.0,29.80,SW,218,0.0,1.0,92,0.00,,,0.00,weatherlink.com 1.10,2013-05-09 10:18:00,
2013-05-09 06:33:00,60.0,58.0,29.81,SW,214,0.0,1.0,92,0.00,,,0.00,weatherlink.com 1.10,2013-05-09 10:33:00,
2013-05-09 06:48:00,60.1,58.0,29.81,SW,222,0.0,1.0,93,0.00,,,0.00,weatherlink.com 1.10,2013-05-09 10:48:00,
2013-05-09 07:04:00,61.6,60.0,29.82,West,263,0.0,0.0,93,0.00,,,0.00,weatherlink.com 1.10,2013-05-09 11:04:00,
2013-05-09 07:18:00,63.6,61.0,29.82,West,262,0.0,0.0,90,0.00,,,0.00,weatherlink.com 1.10,2013-05-09 11:18:00,
2013-05-09 07:33:00,65.1,61.0,29.82,West,273,0.0,2.0,86,0.00,,,0.00,weatherlink.com 1.10,2013-05-09 11:33:00,
2013-05-09 07:49:00,65.1,60.0,29.83,SW,224,2.0,4.0,84,0.00,,,0.00,weatherlink.com 1.10,2013-05-09 11:49:00,
2013-05-09 08:04:00,66.0,61.0,29.83,NW,307,3.0,5.0,84,0.00,,,0.00,weatherlink.com 1.10,2013-05-09 12:04:00,
2013-05-09 08:19:00,66.5,61.0,29.84,NNW,334,3.0,6.0,82,0.00,,,0.00,weatherlink.com 1.10,2013-05-09 12:19:00,
2013-05-09 08:34:00,67.3,61.0,29.84,NW,314,4.0,6.0,81,0.00,,,0.00,weatherlink.com 1.10,2013-05-09 12:34:00,
2013-05-09 08:49:00,68.2,62.0,29.85,NW,326,4.0,7.0,80,0.00,,,0.00,weatherlink.com 1.10,2013-05-09 12:49:00,
2013-05-09 09:05:00,69.3,62.0,29.85,NW,321,4.0,6.0,78,0.00,,,0.00,weatherlink.com 1.10,2013-05-09 13:05:00,
2013-05-09 09:19:00,70.1,63.0,29.85,NW,306,2.0,6.0,77,0.00,,,0.00,weatherlink.com 1.10,2013-05-09 13:19:00,
2013-05-09 09:34:00,71.8,63.0,29.85,NNE,18,2.0,4.0,74,0.00,,,0.00,weatherlink.com 1.10,2013-05-09 13:34:00,
2013-05-09 09:51:00,72.3,62.0,29.85,NW,315,0.0,6.0,71,0.00,,,0.00,weatherlink.com 1.10,2013-05-09 13:51:00,
2013-05-09 10:06:00,72.7,63.0,29.85,ENE,70,1.0,5.0,71,0.00,,,0.00,weatherlink.com 1.10,2013-05-09 14:06:00,
2013-05-09 10:21:00,73.5,63.0,29.85,NW,323,0.0,7.0,69,0.00,,,0.00,weatherlink.com 1.10,2013-05-09 14:21:00,
2013-05-09 10:35:00,74.4,63.0,29.85,North,360,3.0,5.0,68,0.00,,,0.00,weatherlink.com 1.10,2013-05-09 14:35:00,
2013-05-09 10:51:00,74.9,63.0,29.85,NNW,330,2.0,5.0,67,0.00,,,0.00,weatherlink.com 1.10,2013-05-09 14:51:00,
2013-05-09 11:06:00,75.6,63.0,29.85,NW,321,0.0,4.0,65,0.00,,,0.00,weatherlink.com 1.10,2013-05-09 15:06:00,
2013-05-09 11:21:00,75.7,62.0,29.85,South,176,4.0,11.0,63,0.00,,,0.00,weatherlink.com 1.10,2013-05-09 15:21:00,
2013-05-09 11:36:00,76.3,62.0,29.85,WNW,285,4.0,12.0,62,0.00,,,0.00,weatherlink.com 1.10,2013-05-09 15:36:00,
2013-05-09 11:51:00,77.3,63.0,29.85,WNW,293,3.0,10.0,61,0.00,,,0.00,weatherlink.com 1.10,2013-05-09 15:51:00,
2013-05-09 12:07:00,77.7,62.0,29.85,West,262,1.0,8.0,58,0.00,,,0.00,weatherlink.com 1.10,2013-05-09 16:07:00,
2013-05-09 12:21:00,78.3,61.0,29.84,WSW,256,4.0,12.0,55,0.00,,,0.00,weatherlink.com 1.10,2013-05-09 16:21:00,
2013-05-09 12:36:00,78.2,61.0,29.84,West,260,8.0,14.0,55,0.00,,,0.00,weatherlink.com 1.10,2013-05-09 16:36:00,
2013-05-09 12:51:00,78.3,60.0,29.84,WSW,252,4.0,15.0,54,0.00,,,0.00,weatherlink.com 1.10,2013-05-09 16:51:00,
2013-05-09 13:07:00,78.2,59.0,29.84,West,276,3.0,12.0,52,0.00,,,0.00,weatherlink.com 1.10,2013-05-09 17:07:00,
2013-05-09 13:22:00,78.5,60.0,29.83,NW,309,5.0,11.0,53,0.00,,,0.00,weatherlink.com 1.10,2013-05-09 17:22:00,
2013-05-09 13:37:00,79.7,60.0,29.83,West,280,4.0,9.0,51,0.00,,,0.00,weatherlink.com 1.10,2013-05-09 17:37:00,
2013-05-09 13:52:00,80.5,60.0,29.83,NNW,327,1.0,10.0,49,0.00,,,0.00,weatherlink.com 1.10,2013-05-09 17:52:00,
2013-05-09 14:08:00,80.0,59.0,29.83,North,351,13.0,13.0,49,0.00,,,0.00,weatherlink.com 1.10,2013-05-09 18:08:00,
2013-05-09 14:22:00,80.2,58.0,29.83,NW,311,6.0,11.0,46,0.00,,,0.00,weatherlink.com 1.10,2013-05-09 18:22:00,
2013-05-09 14:37:00,81.1,58.0,29.82,WNW,294,3.0,9.0,45,0.00,,,0.00,weatherlink.com 1.10,2013-05-09 18:37:00,
2013-05-09 14:53:00,81.5,57.0,29.82,WNW,301,6.0,12.0,43,0.00,,,0.00,weatherlink.com 1.10,2013-05-09 18:53:00,
2013-05-09 15:08:00,82.1,55.0,29.82,WSW,243,3.0,10.0,40,0.00,,,0.00,weatherlink.com 1.10,2013-05-09 19:08:00,
2013-05-09 15:23:00,81.9,55.0,29.82,WSW,245,7.0,14.0,40,0.00,,,0.00,weatherlink.com 1.10,2013-05-09 19:23:00,
2013-05-09 15:38:00,81.8,55.0,29.81,NW,307,4.0,12.0,40,0.00,,,0.00,weatherlink.com 1.10,2013-05-09 19:38:00,
2013-05-09 15:53:00,81.5,55.0,29.81,WNW,285,1.0,9.0,40,0.00,,,0.00,weatherlink.com 1.10,2013-05-09 19:53:00,
2013-05-09 16:09:00,81.4,57.0,29.81,WSW,252,9.0,17.0,44,0.00,,,0.00,weatherlink.com 1.10,2013-05-09 20:09:00,
2013-05-09 16:23:00,80.5,63.0,29.81,SW,230,8.0,10.0,56,0.00,,,0.00,weatherlink.com 1.10,2013-05-09 20:23:00,
2013-05-09 16:38:00,79.8,63.0,29.81,WSW,256,5.0,11.0,57,0.00,,,0.00,weatherlink.com 1.10,2013-05-09 20:38:00,
2013-05-09 16:54:00,79.2,62.0,29.81,WNW,284,4.0,14.0,56,0.00,,,0.00,weatherlink.com 1.10,2013-05-09 20:54:00,
2013-05-09 17:09:00,79.6,63.0,29.82,WSW,242,9.0,16.0,57,0.00,,,0.00,weatherlink.com 1.10,2013-05-09 21:09:00,
2013-05-09 17:24:00,78.9,63.0,29.82,SW,214,7.0,11.0,59,0.00,,,0.00,weatherlink.com 1.10,2013-05-09 21:24:00,
2013-05-09 17:39:00,79.0,63.0,29.82,SSW,207,10.0,11.0,59,0.00,,,0.00,weatherlink.com 1.10,2013-05-09 21:39:00,
2013-05-09 17:54:00,77.2,63.0,29.82,SSW,205,7.0,12.0,61,0.00,,,0.00,weatherlink.com 1.10,2013-05-09 21:54:00,
2013-05-09 18:10:00,76.0,62.0,29.82,SSW,207,3.0,10.0,63,0.00,,,0.00,weatherlink.com 1.10,2013-05-09 22:10:00,
2013-05-09 18:24:00,75.9,62.0,29.82,SW,214,6.0,6.0,62,0.00,,,0.00,weatherlink.com 1.10,2013-05-09 22:24:00,
2013-05-09 18:39:00,76.7,61.0,29.82,SW,217,3.0,13.0,59,0.00,,,0.00,weatherlink.com 1.10,2013-05-09 22:39:00,
2013-05-09 18:55:00,75.0,61.0,29.83,SW,222,5.0,12.0,62,0.00,,,0.00,weatherlink.com 1.10,2013-05-09 22:55:00,
2013-05-09 19:10:00,74.9,61.0,29.82,WSW,240,7.0,9.0,63,0.00,,,0.00,weatherlink.com 1.10,2013-05-09 23:10:00,
2013-05-09 19:25:00,74.9,62.0,29.83,SSW,197,3.0,8.0,64,0.00,,,0.00,weatherlink.com 1.10,2013-05-09 23:25:00,
2013-05-09 19:42:00,74.1,62.0,29.84,SW,233,4.0,5.0,65,0.00,,,0.00,weatherlink.com 1.10,2013-05-09 23:42:00,
2013-05-09 19:55:00,73.2,62.0,29.84,SSW,210,3.0,4.0,67,0.00,,,0.00,weatherlink.com 1.10,2013-05-09 23:55:00,
2013-05-09 20:11:00,71.6,62.0,29.85,SSW,212,2.0,4.0,71,0.00,,,0.00,weatherlink.com 1.10,2013-05-10 00:11:00,
2013-05-09 20:25:00,70.5,62.0,29.85,SW,221,4.0,6.0,74,0.00,,,0.00,weatherlink.com 1.10,2013-05-10 00:25:00,
2013-05-09 20:41:00,69.7,62.0,29.85,WSW,243,2.0,4.0,76,0.00,,,0.00,weatherlink.com 1.10,2013-05-10 00:41:00,
2013-05-09 20:55:00,69.1,62.0,29.86,SW,219,0.0,3.0,78,0.00,,,0.00,weatherlink.com 1.10,2013-05-10 00:55:00,
2013-05-09 21:11:00,68.0,62.0,29.86,South,174,1.0,2.0,80,0.00,,,0.00,weatherlink.com 1.10,2013-05-10 01:11:00,
2013-05-09 21:26:00,67.2,62.0,29.87,SSW,211,1.0,2.0,82,0.00,,,0.00,weatherlink.com 1.10,2013-05-10 01:26:00,
2013-05-09 21:41:00,66.8,62.0,29.88,SW,214,0.0,2.0,83,0.00,,,0.00,weatherlink.com 1.10,2013-05-10 01:41:00,
2013-05-09 21:56:00,66.4,62.0,29.88,WSW,240,0.0,1.0,84,0.00,,,0.00,weatherlink.com 1.10,2013-05-10 01:56:00,
2013-05-09 22:11:00,65.3,61.0,29.88,SSW,197,0.0,1.0,86,0.00,,,0.00,weatherlink.com 1.10,2013-05-10 02:11:00,
2013-05-09 22:26:00,64.9,61.0,29.89,WSW,257,0.0,1.0,87,0.00,,,0.00,weatherlink.com 1.10,2013-05-10 02:26:00,
2013-05-09 22:42:00,64.2,61.0,29.89,WSW,256,0.0,0.0,88,0.00,,,0.00,weatherlink.com 1.10,2013-05-10 02:42:00,
2013-05-09 22:56:00,63.8,61.0,29.89,WSW,256,0.0,0.0,90,0.00,,,0.00,weatherlink.com 1.10,2013-05-10 02:56:00,
2013-05-09 23:12:00,63.3,60.0,29.88,WSW,256,0.0,0.0,90,0.00,,,0.00,weatherlink.com 1.10,2013-05-10 03:12:00,
2013-05-09 23:27:00,62.9,60.0,29.89,WSW,255,0.0,0.0,91,0.00,,,0.00,weatherlink.com 1.10,2013-05-10 03:27:00,
2013-05-09 23:42:00,62.3,60.0,29.89,WSW,256,0.0,0.0,91,0.00,,,0.00,weatherlink.com 1.10,2013-05-10 03:42:00,
2013-05-09 23:57:00,62.2,60.0,29.89,WNW,301,0.0,1.0,93,0.00,,,0.00,weatherlink.com 1.10,2013-05-10 03:57:00,